Driggs, ID

3:13 PM MST on November 20, 2019 (GMT -0700)
Driggs

Weather History for KDIJ - October, 2019

Change the Weather History Date:

Wednesday, October 23, 2019

  Actual Average (KJAC) Record (KJAC)
Temperature  
Mean Temperature 32 °F -  
Max Temperature 42 °F 51 °F 77 °F (2017)
Min Temperature 21 °F 21 °F 8 °F (1984)
Degree Days  
Heating Degree Days 33    
Moisture  
Dew Point 22 °F    
Average Humidity 65    
Maximum Humidity 89    
Minimum Humidity 41    
Precipitation  
Precipitation 0.00 in - - ()
Sea Level Pressure  
Sea Level Pressure 30.31 in    
Wind  
Wind Speed 4 mph (NNE)    
Max Wind Speed 18 mph    
Max Gust Speed 25 mph    
Visibility 10 miles    
Events Rain    
Averages and records for this station are not official NWS values.
T = Trace of Precipitation, MM = Missing Value Source: NWS Daily Summary

Daily Weather History Graph

Daily Weather History Graph

Search for Another Location

Airport or City:

Astronomy

Oct. 23, 2019 Rise Set
Actual Time 7:48 AM MDT 6:28 PM MDT
Civil Twilight 7:19 AM MDT 6:57 PM MDT
Nautical Twilight 6:45 AM MDT 7:31 PM MDT
Astronomical Twilight 6:12 AM MDT 8:04 PM MDT
Moon 1:57 AM MDT (10/23) 4:33 PM MDT (10/23)
Length of Visible Light 11h 38m
Length of Day
10h 39m
Waning Crescent, 26% of the Moon is Illuminated
Oct 23
Waning Crescent
Oct 27
New
Nov 4
First Quarter
Nov 12
Full
Nov 19
Last Quarter

Hourly Weather History & Observations

Time (MDT) Temp. Windchill Dew Point Humidity Pressure Visibility Wind Dir Wind Speed Gust Speed Precip Events Conditions
12:56 AM 37.0 °F - 27.0 °F 67% 30.19 in 10.0 mi Calm Calm - N/A   Overcast
1:56 AM 37.0 °F 33.3 °F 27.0 °F 67% 30.19 in 10.0 mi North 4.6 mph - N/A   Overcast
2:56 AM 36.0 °F 31.1 °F 28.0 °F 73% 30.22 in 10.0 mi NNE 5.8 mph - 0.00 in Rain Light Rain
3:56 AM 34.0 °F - 27.0 °F 75% 30.20 in 10.0 mi Calm Calm - 0.00 in   Overcast
4:56 AM 33.1 °F 30.0 °F 21.9 °F 64% 30.20 in 10.0 mi Variable 3.5 mph - N/A   Clear
5:56 AM 32.0 °F 26.4 °F 21.9 °F 66% 30.22 in 10.0 mi NNE 5.8 mph - N/A   Overcast
6:56 AM 30.0 °F - 21.0 °F 69% 30.23 in 10.0 mi Calm Calm - N/A   Clear
7:56 AM 30.9 °F 26.2 °F 19.9 °F 64% 30.23 in 10.0 mi NNW 4.6 mph - N/A   Partly Cloudy
8:56 AM 30.9 °F 25.2 °F 21.9 °F 69% 30.26 in 10.0 mi North 5.8 mph - N/A   Overcast
9:56 AM 32.0 °F 26.4 °F 21.9 °F 66% 30.29 in 10.0 mi NE 5.8 mph - N/A   Mostly Cloudy
10:56 AM 35.1 °F 29.3 °F 21.9 °F 59% 30.30 in 10.0 mi North 6.9 mph - N/A   Overcast
11:56 AM 36.0 °F 29.0 °F 23.0 °F 59% 30.31 in 10.0 mi NNW 9.2 mph - N/A   Overcast
12:56 PM 39.0 °F 34.8 °F 19.9 °F 46% 30.31 in 10.0 mi Variable 5.8 mph - N/A   Overcast
1:56 PM 36.0 °F 32.1 °F 23.0 °F 59% 30.31 in 7.0 mi NE 4.6 mph - 0.00 in Rain Light Rain
2:56 PM 37.0 °F - 19.0 °F 48% 30.30 in 10.0 mi Calm Calm - 0.00 in   Mostly Cloudy
3:56 PM 41.0 °F 32.2 °F 19.0 °F 41% 30.31 in 10.0 mi NNW 18.4 mph 25.3 mph N/A   Overcast
4:13 PM 35.6 °F 26.2 °F 21.2 °F 56% 30.28 in 10.0 mi NNE 15.0 mph - N/A   Mostly Cloudy
4:56 PM 36.0 °F 29.0 °F 19.0 °F 50% 30.34 in 10.0 mi North 9.2 mph - N/A   Scattered Clouds
5:56 PM 35.1 °F 28.6 °F 19.9 °F 54% 30.36 in 10.0 mi NE 8.1 mph - N/A   Partly Cloudy
6:56 PM 30.0 °F 22.4 °F 21.9 °F 72% 30.42 in 10.0 mi NNE 8.1 mph - N/A   Mostly Cloudy
7:56 PM 26.1 °F 20.5 °F 21.9 °F 84% 30.44 in 10.0 mi NE 4.6 mph - N/A   Clear
8:56 PM 26.1 °F - 19.0 °F 75% 30.46 in 10.0 mi Calm Calm - N/A   Clear
9:56 PM 24.1 °F 19.7 °F 18.0 °F 77% 30.49 in 10.0 mi NE 3.5 mph - N/A   Partly Cloudy
10:56 PM 23.0 °F 18.4 °F 17.1 °F 78% 30.50 in 10.0 mi SSE 3.5 mph - N/A   Clear
11:56 PM 21.9 °F 15.7 °F 19.0 °F 89% 30.50 in 10.0 mi SE 4.6 mph - N/A   Overcast